GFSGL_925_spd_159.txt.gz
Wind_Speed
29 25 24 25 23 26 27 27 28 28 29 28 27 24 23 25 26 33 35 35 34 37 37 37 40 41 38 37 37 37 38 38 20 33 36 35 36 36 35 36 38 40 42
24 23 22 22 24 28 29 30 30 32 31 30 31 29 26 25 25 26 30 32 34 35 36 37 40 40 41 42 38 39 39 40 36 22 32 34 40 39 41 38 39 40 42
24 22 21 23 31 33 30 29 30 34 33 33 29 29 31 28 27 26 28 29 34 36 38 39 41 40 40 39 40 42 41 37 38 36 35 38 39 37 36 40 42 44 42
24 25 27 28 31 29 29 29 32 35 32 34 30 29 31 29 26 24 26 31 33 32 37 41 43 42 44 42 40 41 38 38 38 37 32 32 31 34 37 32 33 43 44
19 20 21 23 24 25 25 29 30 27 29 30 33 30 31 28 23 31 33 34 35 36 38 38 38 43 47 46 40 39 35 35 36 31 28 31 20 20 27 33 33 33 42
18 19 20 21 22 23 27 31 32 33 32 34 33 31 31 29 28 29 35 33 36 35 35 36 37 37 44 52 57 57 54 36 30 30 29 23 33 34 37 38 35 14 7
15 18 20 20 21 22 23 23 24 27 30 32 31 29 31 30 28 31 35 37 34 33 35 35 37 36 38 39 43 43 57 69 65 54 34 33 35 38 40 32 36 32 25
15 18 20 22 23 25 25 25 26 26 27 28 28 29 30 29 31 34 37 36 36 37 34 35 36 38 37 37 39 40 40 47 53 55 56 48 42 47 44 49 45 42 25
17 19 21 22 22 23 23 26 26 27 27 27 28 30 31 32 34 35 36 35 35 38 37 35 36 41 40 39 42 40 42 49 44 43 48 55 53 49 47 40 27 18 6
19 19 20 20 21 22 24 27 27 26 26 28 27 27 30 31 32 37 39 38 37 38 41 40 37 37 38 37 39 36 38 47 37 37 37 45 53 58 52 49 41 23 11
18 19 20 20 20 21 24 24 26 27 29 30 30 29 27 29 32 32 35 38 36 40 40 40 38 37 38 40 38 40 42 41 42 38 38 37 38 41 42 46 45 42 27
19 20 23 24 22 23 24 25 25 24 24 25 26 26 25 28 30 33 36 41 41 41 42 41 41 42 46 47 47 44 48 47 39 35 30 31 28 27 34 41 48 52 47
22 24 25 25 25 24 23 23 23 23 22 24 25 26 28 29 30 34 41 41 41 43 43 46 50 52 49 44 38 39 41 36 33 30 28 28 29 30 35 34 38 38 36
23 24 22 22 24 22 21 20 20 21 22 24 25 26 29 29 30 38 39 39 41 43 44 47 49 49 47 45 40 34 32 31 31 30 29 27 25 27 29 31 24 25 20
19 18 19 18 20 21 19 20 21 19 21 25 23 26 28 29 34 40 41 42 42 40 43 36 34 30 28 26 26 27 28 28 26 27 26 24 23 24 21 25 22 21 18
19 20 22 20 21 21 23 25 19 16 19 18 21 24 26 28 35 37 38 40 36 38 33 31 30 31 29 31 33 28 23 23 25 25 24 22 19 18 18 18 22 22 19
19 19 20 19 20 20 21 23 29 29 18 18 22 24 24 30 35 35 37 38 30 33 29 30 28 30 32 33 33 33 34 30 27 26 23 21 18 18 17 17 20 18 17
16 16 17 19 21 19 20 20 21 24 29 29 28 26 28 30 34 31 34 35 37 34 28 29 30 31 34 34 35 34 37 36 35 23 22 21 18 17 15 15 19 18 19
16 17 17 19 19 20 20 19 20 21 24 27 30 29 31 30 31 27 30 26 28 29 30 29 32 32 33 35 36 36 35 35 34 37 25 20 18 17 17 18 20 22 21
14 15 16 18 20 20 20 20 20 20 22 24 25 27 32 32 29 30 26 26 26 28 29 29 32 33 33 35 37 36 36 35 36 33 34 34 21 18 18 17 18 16 18
15 16 16 17 19 20 20 21 21 21 20 22 24 26 28 27 24 24 27 26 26 29 31 32 31 33 32 35 36 36 35 33 34 34 34 34 36 21 18 17 16 18 18
15 16 17 17 18 19 21 21 22 23 22 22 25 27 26 23 23 24 24 25 27 27 29 31 31 31 31 33 36 36 35 35 36 38 37 36 34 35 20 16 13 13 14
16 17 18 19 18 19 21 22 23 24 24 25 26 26 26 24 24 25 26 26 28 28 32 32 31 32 32 34 34 32 34 35 37 42 36 37 31 30 30 19 14 12 13
17 19 19 20 21 21 22 23 25 25 26 27 28 27 27 27 27 28 29 29 28 29 33 34 34 33 38 38 38 35 38 39 40 40 35 35 31 30 28 23 15 11 14
19 20 20 20 22 23 23 24 26 26 27 28 30 29 31 31 31 31 32 32 31 30 36 36 36 36 37 37 38 39 39 40 38 39 36 33 32 30 27 22 16 8 9
21 20 20 21 22 23 24 25 27 27 28 29 30 32 32 33 34 34 35 35 34 37 38 37 37 35 36 37 39 39 40 37 36 37 33 31 30 29 27 24 19 9 8

GFSGL_925_spd_162.txt.gz
Wind_Speed
14 13 13 13 14 15 14 15 16 16 17 17 18 18 18 21 21 19 23 22 25 29 31 32 35 37 36 33 33 35 35 33 18 36 38 36 35 43 41 41 44 50 49
14 14 14 15 16 16 16 17 17 18 17 17 18 17 19 19 21 21 23 27 19 23 29 29 33 34 35 37 36 36 35 36 34 23 37 36 37 40 42 39 41 51 51
13 13 13 15 16 17 17 18 18 18 18 18 18 21 20 20 20 22 20 28 30 27 27 30 37 35 33 35 34 34 36 37 35 35 36 40 38 37 35 40 41 38 47
11 12 13 15 17 17 18 19 20 21 21 22 21 19 20 21 21 20 25 27 29 31 30 29 32 32 35 36 35 37 37 34 37 35 33 34 36 35 34 33 28 40 38
10 12 14 16 16 17 19 20 21 21 20 21 21 20 20 20 17 25 27 29 31 34 33 31 31 33 37 36 37 39 39 33 30 32 29 31 29 25 21 36 32 32 35
10 12 14 15 16 18 19 20 20 20 20 20 20 20 21 20 22 26 28 30 30 30 31 34 34 34 31 36 36 38 42 39 40 34 31 19 35 32 32 34 31 22 10
10 12 14 15 16 16 17 18 19 19 19 19 18 20 20 21 24 28 30 31 30 31 33 34 36 32 35 34 37 40 43 44 41 42 39 41 36 40 36 29 35 32 31
9 11 13 14 15 16 17 17 18 18 19 20 20 21 21 21 24 28 32 28 29 31 32 34 36 38 36 39 41 42 40 40 37 37 41 46 45 47 45 36 34 40 42
9 10 11 12 13 14 16 18 18 18 18 19 19 20 21 22 25 29 32 31 31 34 34 34 35 38 38 38 39 41 43 46 40 39 43 48 52 58 54 47 30 16 9
7 8 9 10 12 13 15 16 16 16 16 18 19 19 20 22 25 28 29 31 34 36 35 34 33 35 40 42 41 41 42 46 43 46 50 51 48 51 50 51 43 18 10
8 9 10 11 12 12 14 14 16 16 17 17 18 19 18 21 22 25 28 31 31 35 35 37 36 39 45 50 50 47 47 52 50 47 45 46 44 42 42 39 42 39 23
9 10 11 11 11 13 14 15 16 17 17 18 20 20 19 22 21 24 29 30 33 32 35 37 40 49 47 47 48 48 51 52 48 41 39 40 38 39 37 36 40 46 43
9 11 11 12 12 12 14 15 16 16 17 19 21 21 23 24 23 25 31 32 32 34 32 38 41 38 38 36 39 41 40 39 39 35 32 35 38 39 39 38 40 41 45
11 10 10 11 13 12 12 12 14 15 16 20 21 22 24 24 25 29 34 33 33 34 35 37 33 31 30 33 36 37 37 37 37 36 33 35 37 35 33 32 29 28 28
10 9 10 10 11 13 12 12 14 13 15 20 19 22 24 24 28 33 35 34 35 33 36 28 29 31 32 33 36 36 37 37 36 37 37 37 29 29 29 28 29 22 18
9 9 10 12 12 12 13 15 11 12 15 15 17 19 23 22 29 31 31 32 31 30 27 25 25 27 28 31 32 35 35 36 37 37 36 36 36 25 25 21 23 18 11
10 9 10 10 11 12 13 15 18 17 14 14 16 19 19 25 26 30 31 31 25 26 21 23 24 26 28 29 31 32 35 36 39 35 34 34 36 38 24 20 17 18 12
9 8 7 9 11 12 13 14 15 16 18 18 16 18 19 24 24 28 28 26 24 23 22 23 25 27 28 30 31 33 35 37 36 36 35 34 35 33 32 20 15 12 10
9 7 10 9 9 12 12 13 14 15 16 18 18 17 19 21 22 23 23 19 21 22 23 23 25 26 28 30 30 32 34 33 36 36 34 35 34 34 32 31 25 18 18
9 10 11 10 11 12 12 13 15 15 17 17 18 19 22 25 22 21 20 20 21 22 23 24 26 27 28 30 31 33 33 34 34 34 35 35 35 35 32 32 31 21 15
10 10 11 11 11 11 12 13 14 15 17 18 19 19 22 23 20 20 20 21 22 23 24 26 27 28 28 29 30 32 32 33 33 35 35 36 36 36 37 34 32 34 21
10 12 13 13 13 13 13 14 14 15 17 18 20 21 22 18 18 20 20 20 23 24 24 25 28 28 28 29 30 32 32 33 33 35 36 37 36 37 35 35 34 30 30
11 12 13 13 12 14 14 14 15 16 17 19 20 20 19 19 20 20 22 24 23 27 28 27 28 33 31 30 32 30 31 32 34 37 38 38 36 36 35 33 32 31 26
14 13 14 15 15 17 15 16 17 19 20 19 20 20 20 20 22 24 25 25 26 27 28 29 31 33 34 35 36 37 37 38 37 39 38 36 34 35 34 32 32 33 31
14 15 16 17 18 18 19 18 18 19 19 19 21 21 22 22 23 24 25 28 29 29 30 32 34 33 34 35 37 37 39 39 38 39 35 36 31 34 32 31 32 33 31
16 17 18 19 20 19 19 19 19 19 20 20 21 22 23 25 26 27 29 30 30 31 34 34 35 33 33 35 36 38 38 39 36 38 38 32 32 31 31 31 32 30 29

GFSGL_925_spd_165.txt.gz
Wind_Speed
9 10 10 11 12 11 12 13 14 14 15 15 16 16 16 17 18 18 19 17 21 22 23 26 26 27 29 30 31 28 37 30 16 35 31 33 35 36 36 40 44 44 48
8 8 9 10 12 12 13 14 14 15 14 15 15 15 16 16 17 17 18 20 21 23 23 24 25 26 28 26 28 34 33 36 28 12 34 32 34 35 38 41 41 47 48
7 8 9 10 11 12 13 13 14 14 14 15 15 16 16 16 16 17 18 20 20 21 23 25 26 27 25 28 33 32 32 35 35 32 31 34 31 36 35 35 41 44 44
6 7 8 10 11 11 12 13 13 14 14 15 15 15 16 16 15 21 22 23 23 23 23 23 23 23 26 29 29 29 31 33 31 30 30 31 32 30 32 32 32 34 39
4 5 7 8 9 10 11 12 13 14 14 15 15 16 17 16 19 26 26 26 26 25 23 23 23 26 25 24 29 29 31 32 33 31 29 30 31 30 25 27 28 28 37
2 4 6 7 8 10 11 12 13 14 15 15 16 17 17 16 21 24 26 27 23 24 26 26 27 26 28 31 30 32 31 32 33 30 30 24 33 33 34 34 35 23 11
3 4 6 7 8 10 11 12 13 13 13 14 14 15 16 16 21 25 27 23 23 24 26 29 30 29 33 34 37 37 35 31 31 34 36 35 37 35 34 35 34 31 32
3 3 5 7 8 10 11 12 12 12 13 14 14 14 15 15 21 24 27 22 23 24 25 28 29 31 29 35 41 42 41 37 34 35 38 47 42 43 39 40 40 42 48
4 3 5 6 7 8 10 12 12 12 13 13 14 15 16 16 20 24 26 26 26 26 28 28 30 30 32 37 42 43 46 44 40 40 43 48 52 53 48 43 40 27 20
3 3 5 6 7 8 9 11 11 11 11 12 13 13 13 14 18 21 24 25 25 27 27 28 28 30 35 39 38 37 40 43 47 49 45 44 45 47 43 38 40 28 24
2 3 4 5 7 7 8 9 10 11 11 11 12 13 13 14 19 20 24 26 28 30 28 28 29 32 39 37 34 31 33 45 47 40 40 38 38 40 41 38 38 37 36
1 2 3 4 5 7 9 9 9 10 11 12 14 14 13 15 18 18 23 25 28 29 29 30 32 38 35 34 31 31 33 34 32 36 34 34 34 38 40 43 42 41 46
1 2 3 5 4 6 8 9 9 10 11 12 14 15 16 17 18 18 24 27 27 29 29 33 35 34 31 29 28 30 29 28 30 31 31 34 38 41 45 45 45 45 47
2 3 4 5 6 6 6 7 8 9 10 12 14 16 17 18 18 21 26 28 27 28 30 32 31 28 26 27 29 27 26 27 28 28 31 35 38 39 40 40 43 40 36
1 3 4 5 6 7 6 6 7 7 9 13 13 15 17 18 19 25 27 29 30 30 30 27 24 25 27 27 29 29 29 29 29 31 33 35 35 38 39 39 40 42 31
1 2 3 4 5 6 7 8 7 8 11 12 12 13 17 18 21 25 25 27 28 26 23 19 21 21 23 26 27 31 30 31 32 35 33 32 34 35 39 41 38 35 29
2 3 3 4 5 7 8 9 13 16 12 13 13 16 17 19 23 24 25 27 23 21 16 17 19 21 24 25 26 27 30 31 33 31 32 33 34 35 37 35 35 33 32
3 4 4 5 6 7 8 10 11 13 16 18 17 18 18 19 24 24 25 25 22 18 16 19 21 22 24 25 27 28 30 32 31 32 31 32 32 33 34 33 34 33 31
2 3 5 6 7 9 10 10 10 12 14 17 18 18 18 20 21 20 20 18 19 19 19 19 21 23 24 25 26 28 28 30 32 32 31 31 32 33 34 33 35 38 37
4 5 7 7 8 8 8 10 11 12 14 15 16 17 19 21 19 19 16 17 19 20 21 22 23 24 24 25 26 27 28 30 30 30 31 32 32 33 33 34 35 35 34
5 6 7 8 8 9 10 11 12 14 15 16 18 18 19 22 20 18 18 18 19 23 24 24 25 26 26 26 27 27 28 30 30 31 31 32 33 33 36 33 35 36 34
7 8 9 10 11 12 12 14 17 15 17 18 19 20 20 20 18 19 20 21 22 25 27 25 26 28 28 28 28 28 29 31 32 31 33 33 34 34 35 34 35 35 35
8 9 11 12 14 15 17 16 16 17 18 19 21 21 19 19 20 22 24 25 27 28 27 28 29 30 32 31 31 29 30 33 34 34 34 35 35 34 35 33 34 34 33
11 12 13 15 16 16 18 19 18 20 21 21 21 21 22 22 22 24 26 27 28 30 31 30 31 32 33 34 32 33 34 36 36 36 35 35 36 35 33 32 32 34 34
13 15 16 18 18 18 19 20 21 21 21 21 22 23 25 26 26 27 28 28 29 31 33 33 34 34 33 33 34 33 34 34 35 35 37 34 34 37 32 31 32 33 32
16 17 19 19 20 21 21 21 22 22 23 24 25 25 26 27 29 30 30 31 31 32 34 36 36 35 35 35 32 32 34 35 34 34 34 34 33 32 30 33 31 31 30

GFSGL_925_spd_168.txt.gz
Wind_Speed
5 7 6 7 8 8 9 10 11 11 13 14 15 15 16 17 20 17 19 20 21 21 22 23 22 23 24 22 24 24 22 18 12 29 25 29 32 34 38 38 41 42 45
4 6 5 6 7 8 9 10 10 11 11 12 13 14 16 18 15 19 21 22 22 22 22 21 20 21 21 24 24 23 22 23 22 25 28 29 29 31 37 37 37 38 42
4 4 4 6 6 7 8 8 9 9 10 11 12 15 15 17 16 20 20 21 20 19 20 20 21 23 24 26 24 26 23 23 25 26 32 29 31 29 33 35 36 35 40
5 4 5 5 6 6 6 8 9 9 10 12 13 13 13 12 16 21 22 21 20 19 18 19 20 23 26 27 26 25 27 27 25 24 27 29 28 28 28 29 32 34 38
6 6 5 5 5 5 7 9 9 10 11 12 12 12 12 11 18 20 22 20 18 17 18 19 20 20 21 22 23 26 28 27 26 26 26 29 28 27 26 30 31 36 40
8 6 5 5 5 7 8 9 10 11 11 11 12 13 13 11 16 19 21 17 17 18 19 21 23 20 25 20 23 24 23 26 27 26 27 27 29 30 31 31 32 31 18
9 6 5 6 5 6 7 7 9 10 10 11 11 11 12 10 15 18 20 17 17 17 20 22 22 23 24 26 28 28 27 24 24 27 30 27 34 33 37 38 33 35 38
10 8 6 6 5 5 5 7 8 9 10 10 10 11 11 10 14 17 19 17 17 17 20 20 20 21 22 29 32 29 27 26 24 27 31 38 39 41 39 39 40 41 46
10 8 6 5 5 5 4 6 7 8 9 10 10 11 13 13 15 18 21 19 18 20 21 22 22 24 26 31 34 31 29 27 25 30 32 36 37 35 36 39 34 30 21
9 7 6 5 4 3 2 4 5 7 7 9 9 9 11 11 13 16 18 19 19 21 20 19 20 25 28 32 31 31 31 31 36 37 34 34 32 32 28 26 34 30 30
10 8 6 4 4 2 2 5 5 6 8 8 8 10 9 10 14 15 17 19 21 22 21 21 23 27 32 30 27 26 28 37 36 32 30 29 27 29 29 27 28 30 33
9 8 6 4 3 2 4 5 5 5 7 8 8 8 8 11 14 13 17 18 21 23 22 23 26 30 29 27 24 25 28 28 29 32 30 29 29 31 35 37 36 33 35
7 6 4 2 2 3 4 4 5 5 5 5 7 8 10 12 14 12 19 20 20 24 22 26 26 29 26 23 22 23 24 22 24 27 29 30 33 35 38 36 37 35 35
8 6 3 1 2 2 3 2 3 4 5 6 8 10 11 12 15 14 20 22 20 23 25 25 29 25 20 20 21 22 22 22 23 25 29 33 34 34 34 33 37 40 37
8 6 4 2 1 1 1 3 4 5 5 9 10 11 12 14 15 17 21 23 24 25 28 29 28 21 22 22 24 24 24 24 23 25 29 31 33 32 34 34 34 36 30
7 5 4 2 1 1 3 5 3 6 7 8 9 10 13 13 15 18 21 21 23 22 21 23 18 19 21 22 23 25 24 24 24 27 27 29 32 32 35 35 33 30 30
8 6 5 3 3 3 3 5 10 8 7 7 8 10 12 14 15 18 20 19 17 18 18 20 21 21 21 21 22 23 25 26 27 25 27 28 30 31 33 33 33 32 32
7 6 5 4 4 4 5 7 7 10 15 17 14 14 13 14 15 18 17 20 25 22 20 20 22 25 23 23 24 25 26 27 26 25 27 28 29 29 31 31 31 32 32
7 7 6 4 4 6 7 7 9 11 13 17 20 18 17 16 18 15 16 23 21 24 24 23 25 27 26 26 26 27 27 28 28 28 26 27 29 29 30 31 33 34 35
7 6 5 5 6 8 8 9 10 12 15 18 20 21 22 20 21 22 27 24 22 25 27 26 28 29 29 29 29 29 29 28 28 27 28 27 28 29 30 31 32 34 31
7 6 7 8 8 8 10 12 12 13 18 20 22 21 17 20 24 27 26 24 24 26 28 28 29 30 31 31 30 30 30 30 30 30 29 28 29 30 31 31 32 33 32
8 9 11 11 10 11 12 13 15 18 19 20 24 24 19 23 26 26 26 27 27 27 27 28 29 29 31 31 31 30 30 32 33 32 30 30 31 31 30 31 32 32 32
10 10 12 13 13 13 14 16 17 18 21 23 24 26 27 26 27 28 29 29 29 29 30 29 30 32 31 31 31 31 32 33 33 33 33 33 33 33 32 32 32 31 31
12 14 15 16 16 16 17 19 20 21 22 25 26 27 28 29 29 30 31 31 31 31 31 31 32 32 32 31 31 32 33 33 32 34 32 33 34 35 32 33 32 30 33
14 15 16 18 19 20 21 22 23 25 26 27 28 29 30 31 32 32 32 32 32 32 33 32 33 34 33 33 32 32 31 28 29 30 30 34 34 34 34 31 31 32 31
14 16 18 19 21 22 23 25 27 27 28 29 30 31 32 33 34 34 34 33 33 33 33 34 35 34 34 34 34 31 27 26 28 30 31 30 30 32 31 31 32 30 29

GFSGL_925_spd_171.txt.gz
Wind_Speed
9 8 7 6 5 4 4 5 6 6 7 9 10 11 12 12 14 14 14 15 16 17 18 19 19 18 20 21 19 16 15 14 9 24 24 25 31 33 36 37 34 34 33
9 8 7 6 5 4 5 5 5 6 7 9 10 12 12 14 16 16 16 16 18 18 18 17 18 17 18 18 16 16 15 14 17 22 26 26 25 28 32 34 33 33 35
11 9 8 7 5 5 6 6 6 7 9 10 11 13 11 13 15 17 16 16 16 15 15 17 18 18 18 20 15 15 14 16 16 20 24 24 26 28 33 30 32 32 32
12 10 8 7 7 6 7 8 8 9 10 11 12 13 11 12 15 17 15 16 15 14 15 16 17 16 19 18 16 18 18 19 18 17 20 22 24 27 25 31 38 32 37
13 11 9 8 8 8 8 9 9 10 10 10 11 12 11 13 16 16 14 14 14 15 16 17 15 14 16 15 18 21 21 20 19 19 19 20 23 27 27 31 32 38 39
15 13 11 10 9 10 9 10 10 11 10 9 10 10 11 12 12 14 12 13 14 14 15 17 15 15 16 17 18 19 17 18 19 19 17 19 22 26 28 28 31 32 13
18 16 14 13 11 11 10 10 10 10 9 9 9 9 9 9 10 12 12 13 12 15 15 15 14 15 19 21 23 22 20 17 17 18 18 21 26 28 30 31 28 31 33
20 17 15 14 13 12 10 10 9 8 8 7 7 7 7 7 9 10 10 10 8 11 13 13 13 15 18 23 25 22 20 21 21 21 23 26 29 30 29 29 31 35 34
21 19 16 15 14 12 11 9 8 8 6 6 6 5 6 5 9 10 10 10 9 11 12 12 12 15 19 24 23 21 21 20 20 23 22 25 24 25 23 29 26 28 27
22 19 16 14 13 11 9 9 7 7 6 5 5 4 4 3 8 9 10 9 9 11 12 11 14 18 22 23 22 20 20 23 27 26 27 28 28 24 22 22 24 24 25
22 18 15 14 13 10 9 7 7 6 4 4 5 4 4 4 7 8 9 10 12 12 12 12 14 19 22 21 19 16 22 26 25 21 23 23 22 22 26 26 26 27 28
20 21 17 14 11 10 9 8 7 5 4 4 4 3 2 4 6 7 8 11 13 13 14 14 16 20 21 19 16 20 21 22 26 24 23 23 23 25 27 28 29 28 30
14 13 15 15 10 8 8 8 7 5 4 3 3 2 3 5 6 7 8 12 13 14 15 16 18 19 17 14 16 18 19 20 21 21 21 22 23 27 28 30 30 28 32
16 12 9 12 11 8 6 6 6 5 4 2 1 2 5 7 7 8 9 17 16 15 15 19 20 18 14 13 15 16 16 17 18 19 23 25 26 25 25 28 32 33 33
13 10 7 7 9 9 7 5 4 3 2 1 3 4 6 9 9 10 12 15 17 15 19 22 22 21 20 17 16 16 18 19 18 20 23 26 26 27 26 28 30 32 28
14 11 10 8 7 6 5 4 3 2 3 4 4 5 6 8 10 11 12 14 14 13 16 17 17 16 15 15 16 17 18 21 21 22 22 23 26 27 28 30 28 28 29
15 14 9 6 5 5 4 3 3 5 4 2 2 4 6 9 10 11 12 12 12 14 15 16 16 17 19 18 17 17 19 20 23 22 22 24 25 26 27 27 27 27 29
11 10 10 8 6 5 5 6 6 7 7 8 5 7 7 8 10 11 11 13 17 16 16 17 19 19 21 22 22 22 23 25 25 25 24 27 28 25 26 26 26 27 29
12 10 9 8 8 8 8 8 8 8 10 12 13 10 8 10 11 10 8 14 21 20 18 20 20 21 23 24 25 25 26 28 28 29 28 27 27 25 25 26 28 30 30
12 10 10 10 10 10 10 10 10 10 12 13 15 16 14 13 15 17 18 22 22 21 21 22 23 23 24 25 26 26 27 29 29 29 29 28 28 25 25 27 27 28 29
12 12 11 11 12 12 12 12 12 13 14 15 18 15 13 16 19 23 24 22 21 21 22 23 24 25 26 26 26 27 27 30 30 30 30 30 29 27 28 28 29 29 30
12 12 13 14 12 13 14 14 14 15 16 19 20 18 15 18 21 23 23 23 22 22 23 24 25 26 26 26 27 27 29 31 31 30 30 31 31 30 30 28 29 29 30
14 15 15 15 15 14 15 16 17 18 20 20 21 22 22 24 23 24 25 25 25 25 24 24 26 27 27 27 26 27 29 31 31 30 31 31 33 33 30 28 29 28 28
15 15 15 15 15 17 19 21 20 21 22 23 24 25 25 25 26 27 27 28 27 27 26 27 27 28 28 28 28 28 29 30 30 31 29 31 32 33 33 30 28 29 31
15 15 17 18 19 21 21 23 23 24 24 25 27 27 27 27 28 29 30 29 29 29 28 28 29 30 29 29 29 29 29 29 29 28 27 26 29 33 35 31 30 30 29
17 17 18 18 20 22 23 24 24 25 27 27 28 28 29 30 31 31 32 31 31 31 30 30 31 31 31 31 31 30 29 27 26 24 25 28 29 29 28 30 30 29 29